Regional Weather Roundup
Issued by NWS

Home | Current Version | Previous Version | Text Only | Print | Product List | Glossary Off
Versions: 1 2 3 4 5 6 7 8 9 10 11 12 13 14 15 16 17 18 19 20 21 22 23 24 25 26 27 28 29 30 31 32 33 34 35 36 37 38 39 40 41 42 43 44 45 46 47 48 49 50

000
ASUS43 KMPX 150510
RWRMN
WEATHER ROUNDUP FOR MINNESOTA
NATIONAL WEATHER SERVICE TWIN CITIES/CHANHASSEN MN
1100 PM CST THU DEC 14 2017


NOTE: "FAIR" INDICATES FEW OR NO CLOUDS BELOW 12,000 FEET WITH NO
SIGNIFICANT WEATHER AND/OR OBSTRUCTIONS TO VISIBILITY. N/A MEANS
CURRENT SKY AND/OR WEATHER CONDITIONS ARE NOT AVAILABLE.

MNZ060>063-068>070-150600-
   Twin Cities Metro

CITY           SKY/WX    TMP DP  RH WIND       PRES   REMARKS
TWIN CITIES    CLOUDY    23  16  74 NW16      29.99F WCI  10
ST PAUL        CLOUDY    23  15  71 NW13      30.00F WCI  11
CRYSTAL        CLOUDY    22  12  65 NW10      29.98S WCI  11
BLAINE         CLOUDY    23  16  74 W13       29.97S WCI  11
LAKEVILLE      FLURRIES  21  18  86 W9        29.99S WCI  11
EDEN PRAIRIE   CLOUDY    24  15  68 NW9       29.99S WCI  14
SOUTH ST PAUL  CLOUDY    24  16  71 NW10G16   29.98F WCI  13
LAKE ELMO      CLOUDY    23  16  74 W9        29.98F WCI  13
$$
MNZ001>005-007-008-013>017-022>024-027-028-150600-
   Northwest Minnesota

CITY           SKY/WX    TMP DP  RH WIND       PRES   REMARKS
BEMIDJI        FLURRIES  14  11  88 W8        29.93F WCI   2
HALLOCK        CLOUDY    16  12  86 N5        30.00F WCI   9
ROSEAU         CLOUDY    12   9  85 NW5       29.97F WCI   4
WARROAD        CLOUDY    10   7  85 NW9       29.96F WCI  -2
THIEF RVR FALL FLURRIES  18  14  86 N16       29.98F WCI   3
CROOKSTON      CLOUDY    19  18  93 W7        30.01S WCI  10
FOSSTON        CLOUDY    14  12  92 W6        29.97F WCI   5
DETROIT LAKES  CLOUDY    18  16  93 CALM      29.97S
MOORHEAD       CLOUDY    19  18  93 CALM      30.00F
PARK RAPIDS    FLURRIES  14  10  84 W6        29.93F WCI   5
MAHNOMEN       CLOUDY    16  15  94 W7        29.97F WCI   7
$$
MNZ006-009>011-018-025>026-150600-
   North Central Minnesota

CITY           SKY/WX    TMP DP  RH WIND       PRES   REMARKS
BAUDETTE       PTCLDY     7   3  84 NW9       29.93S WCI  -7
FLAG ISLAND    CLOUDY    10   7  85 NW10      29.93S WCI  -3
INTL FALLS     LGT SNOW  11   5  77 NW8       29.90S WCI  -1
WASKISH        FLURRIES  12  10  92 NW12      29.94S WCI  -2
BIG FORK       FLURRIES  12   9  85 W5        29.90F WCI   4
LONGVILLE      FLURRIES  14  10  85 W5        29.93F WCI   6
GRAND RAPIDS   FLURRIES  13   8  81 NW12      29.92F WCI  -1
CRANE LAKE     LGT SNOW  10   7  85 CALM      29.90S
ORR            FLURRIES  10   5  79 W7        29.85S WCI   0
COOK           LGT SNOW  10   7  85 W5        29.87F WCI   2
WALKER         FLURRIES  13  10  87 W6        29.94S WCI   4
$$
MNZ012-019>021-037-150600-
   Northeast Minnesota

CITY           SKY/WX    TMP DP  RH WIND       PRES   REMARKS
DULUTH         FLURRIES  12   8  84 NW10      29.86F WCI  -1
ELY            FLURRIES   7   3  85 W5        29.84F WCI  -2
HIBBING        CLOUDY    11   6  81 NW10      29.88F WCI  -3
EVELETH        FLURRIES  10   4  77 W6        29.88S WCI   0
DULUTH HARBOR  CLOUDY    18  10  73 W10       29.94S WCI   6
TWO HARBORS    MOCLDY    16   9  73 NW6G16    29.84F WCI   7
SILVER BAY     CLOUDY    14   7  73 NW7       29.83F WCI   4
GRAND MARAIS     N/A     17   8  67 NW12G24   29.84F WCI   4
G MARAIS ARPRT CLOUDY     9   1  72 NW6       29.76F WCI  -1
$$
MNZ029>031-032-039>041-046>048-054>057-064-150600-
   West Central Minnesota

CITY           SKY/WX    TMP DP  RH WIND       PRES   REMARKS
FERGUS FALLS   CLOUDY    21  21 100 CALM      30.00S
WHEATON        CLOUDY    28  25  86 W8        30.00F WCI  20
MORRIS         CLOUDY    25  23  93 W3        29.97S
ALEXANDRIA     CLOUDY    22  20  92 W5        29.96F WCI  16
ELBOW LAKE     CLOUDY    23  21  94 CALM      29.97F
WADENA         LGT SNOW  16  14  93 NW3       29.95F
GLENWOOD       PTCLDY    21  21 100 W6        29.97F WCI  14
APPLETON         N/A     28  23  80 W8        29.99F WCI  20
BENSON         CLOUDY    25  21  86 W3        30.01S
ORTONVILLE     CLOUDY    28  25  86 W8        29.99F WCI  20
MADISON        CLOUDY    30  27  86 W8        30.01F WCI  23
WILLMAR        FLURRIES  25  21  86 W5        30.01F WCI  19
$$
MNZ033>034-036-042>043-049>051-058-059-150600-
   Central Minnesota

CITY           SKY/WX    TMP DP  RH WIND       PRES   REMARKS
ST CLOUD       LGT SNOW  20  16  84 W9        29.97F FOG     WCI   9
SAUK CENTRE    FLURRIES  21  18  89 W5        29.97F WCI  15
PAYNESVILLE    FLURRIES  22  21  94 W6        29.99F WCI  15
AITKIN         CLOUDY    14   9  79 NW6       29.92S WCI   5
PINE RIVER     CLOUDY    12   9  85 W5        29.98R WCI   4
BRAINERD       CLOUDY    16   9  74 NW13      29.95S WCI   2
STAPLES        FLURRIES  16  12  86 W5        29.95F WCI   9
LONG PRAIRIE   CLOUDY    19  18  93 W6        29.97F WCI  11
LITTLE FALLS   CLOUDY    19  12  73 W5        29.98R WCI  13
LITCHFIELD     CLOUDY    25  21  86 W7        30.00F WCI  17
BUFFALO        CLOUDY    22  16  76 W7        30.00F WCI  14
MAPLE LAKE     CLOUDY    23  18  83 W7        30.00S WCI  14
HUTCHINSON     LGT SNOW  24  20  87 W7        30.01F WCI  16
$$
MNZ037-044-045-052-053-150600-
   East Central Minnesota

CITY           SKY/WX    TMP DP  RH WIND       PRES   REMARKS
PRINCETON      CLOUDY    21  16  79 W10       29.96S WCI  10
MORA           CLOUDY    19  12  73 NW8       29.96R WCI   9
CAMBRIDGE      FLURRIES  21  12  68 W8        29.96F WCI  12
RUSH CITY      CLOUDY    20  14  78 W7        29.95F WCI  11
MOOSE LAKE     CLOUDY    18  10  73 NW9       29.91S WCI   6
HINCKLEY       FLURRIES  21  16  79 NW6       29.93S WCI  14
CLOQUET        FLURRIES  14   9  79 W10       29.88F WCI   1
MCGREGOR       CLOUDY    16  10  79 NW9       29.92S WCI   4
$$
MNZ071>073-080-081-089-090-097-098-150600-
   Southwest Minnesota

CITY           SKY/WX    TMP DP  RH WIND       PRES   REMARKS
MONTEVIDEO     CLOUDY    27  23  86 W5        30.00F WCI  21
GRANITE FALLS  CLOUDY    28  24  82 SW7       30.03F WCI  21
CANBY          CLOUDY    30  26  83 SW14      30.02F WCI  20
MARSHALL       CLOUDY    27  24  89 W10       30.02F WCI  17
REDWOOD FALLS  CLOUDY    27  22  81 SW7       30.02F WCI  19
OLIVIA         PTCLDY    27  21  80 W5        30.01S WCI  21
PIPESTONE      CLOUDY    25  21  86 W8        30.04S WCI  16
WINDOM           N/A     25  12  58 SW8       30.03F WCI  16
WORTHINGTON    CLOUDY    25  23  92 W8        30.04F WCI  16
JACKSON        CLOUDY    27  21  80 MISG      30.04F
TRACY          CLOUDY    28  25  86 W6        30.02F WCI  22
SLAYTON        CLOUDY    26  22  87 W9        30.04F WCI  17
$$
MNZ065>067-074>077-082>085-091>093-150600-
   South Central Minnesota

CITY           SKY/WX    TMP DP  RH WIND       PRES   REMARKS
MANKATO        FLURRIES  24  20  84 W14       30.02F WCI  12
NEW ULM        CLOUDY    25  19  80 W8        30.02F WCI  16
ST JAMES       FLURRIES  25  21  86 W9        30.05F WCI  15
FAIRMONT       FLURRIES  25  20  81 W12       30.05F WCI  14
GLENCOE        CLOUDY    25  20  80 W8        30.01S WCI  16
FARIBAULT      FLURRIES  25  18  74 W8        30.00F WCI  16
OWATONNA       CLOUDY    23  18  80 W9        29.99F WCI  13
WASECA         FLURRIES  23  19  86 W10       30.02F WCI  12
ALBERT LEA     CLOUDY    25  18  74 NW7G17    30.01F WCI  17
$$
MNZ078>079-086>088-094>096-150600-
   Southeast Minnesota

CITY           SKY/WX    TMP DP  RH WIND       PRES   REMARKS
ROCHESTER      CLOUDY    22  19  89 NW14      29.97F WCI   9
RED WING       FLURRIES  25  16  68 W6        29.97F WCI  18
STANTON        CLOUDY    25  18  76 W15       29.98F WCI  12
DODGE CENTER   CLOUDY    21  16  79 W12       29.97F WCI   9
WINONA           N/A     25  18  74 W6        30.00F WCI  18
AUSTIN         CLOUDY    23  18  80 NW15      30.00F WCI  10
PRESTON        CLOUDY    22  18  83 NW10      29.98F WCI  11
$$
ABBREVIATIONS USED IN REMARKS
   TC - TEMPERATURES IN CELSIUS
  WCI - WIND CHILL INDEX
   HX - HEAT INDEX
  VSB - VISIBILITY
$$




USA.gov is the U.S. government's official web portal to all federal, state and local government web resources and services.